Weather observations for the past three days for
Grant County Airport
Imperial (Metric)
Date Time (pdt) Wind (mph) Vis. (mi.) Weather Sky Cond. Temperature (ºF) Relative Humidity Wind Chill (°F) Heat Index (°F) Pressure Precipitation (in)
Air Dwpt 6 hour altimeter (in) sea level (mb) 1 hr 3 hr 6 hr
Max. Min.
22 11:52 SW 7 10.00 Smoke CLR 82 61 49% 83 29.88 1010.6
22 10:52 S 9 10.00 Smoke CLR 80.1 62.1 80.1 70 54% 81 29.88 1010.9
22 09:52 SE 8 10.00 Smoke CLR 78.1 61 56% 80 29.88 1010.9
22 08:52 SE 10 10.00 Smoke CLR 73.9 61 64% 29.89 1011.1
22 07:52 SE 8 10.00 Smoke CLR 71.1 60.1 68% 29.89 1011.0
22 06:52 SE 10 10.00 Smoke FEW065 FEW080 71.1 61 71% 29.88 1010.6
22 05:52 SE 10 10.00 Smoke CLR 72 60.1 66% 29.85 1009.9
22 04:52 SE 8 10.00 Smoke CLR 72 60.1 86 72 66% 29.85 1009.6
22 03:52 S 3 10.00 Smoke CLR 75 57.9 55% 78 29.84 1009.1
22 02:52 SE 7 10.00 Smoke CLR 73.9 59 60% 29.84 1009.1
22 01:52 SE 5 10.00 Smoke CLR 80.1 53.1 39% 80 29.84 1009.0
22 00:52 W 9 10.00 Smoke CLR 82 55 40% 81 29.84 1009.2
21 23:52 SW 10 10.00 Smoke CLR 84.9 55.9 37% 84 29.85 1009.6
21 22:52 S 9 10.00 Smoke CLR 87.1 57 99 82.9 36% 86 29.85 1009.4
21 21:52 Calm 10.00 Smoke CLR 87.1 52 30% 85 29.83 1008.9
21 20:52 SW 5 10.00 Smoke CLR 93.9 48.9 21% 91 29.83 1008.7
21 19:52 N 7 10.00 Smoke CLR 96.1 46.9 19% 92 29.82 1008.6
21 18:52 NW 12 10.00 Smoke FEW110 97 46.9 18% 93 29.84 1009.4
21 17:52 W 12 10.00 Smoke CLR 98.1 50 20% 95 29.86 1010.1
21 16:52 W 14 10.00 Smoke CLR 99 52 107.1 96.1 21% 96 29.88 1010.7
21 15:52 SW 13 10.00 Smoke CLR 100.9 54 21% 99 29.88 1010.5
21 14:52 W 6 10.00 Smoke CLR 107.1 51.1 15% 104 29.87 1010.3
21 13:52 W 15 9.00 Smoke CLR 102 54 20% 100 29.89 1011.0
21 12:52 SW 16 9.00 Smoke CLR 102 55.9 22% 101 29.91 1011.7
21 11:52 Vrbl 5 8.00 Smoke CLR 100.9 53.1 20% 99 29.92 1012.1
21 10:52 SW 8 8.00 Smoke CLR 98.1 52 98.1 64 21% 95 29.94 1012.6
21 09:52 NE 8 6.00 Haze Smoke CLR 93.9 48.9 21% 91 29.94 1012.7
21 08:52 N 9 6.00 Haze Smoke CLR 89.1 46.9 23% 86 29.95 1013.1
21 07:52 N 12 7.00 Smoke CLR 80.1 45 29% 79 29.97 1013.6
21 06:52 N 7 6.00 Fair with Haze CLR 73 42.1 33% 29.98 1014.0
21 05:52 NW 6 9.00 Fair CLR 69.1 41 36% 29.98 1014.1
21 04:52 N 6 10.00 Fair CLR 66.9 37.9 77 66.9 35% 29.97 1013.6
21 03:52 N 7 10.00 Fair CLR 71.1 37.9 30% 29.95 1013.3
21 02:52 NE 8 10.00 Fair CLR 72 37 28% 29.95 1013.1
21 01:52 N 6 10.00 Fair CLR 70 37.9 31% 29.96 1013.4
21 00:52 NW 7 10.00 Fair CLR 71.1 37.9 30% 29.96 1013.5
20 23:52 NW 3 10.00 Fair CLR 75 39 27% 77 29.97 1013.7
20 22:52 N 3 10.00 Fair CLR 78.1 32 100 77 19% 77 29.97 1013.8
20 21:52 N 6 10.00 Fair CLR 81 39.9 23% 79 29.97 1013.8
20 20:52 W 6 10.00 Fair CLR 88 30.9 13% 84 29.97 1013.8
20 19:52 NW 3 10.00 Fair CLR 97 30.9 10% 92 29.97 1014.0
20 18:52 Calm 10.00 Fair CLR 99 24.1 7% 93 29.99 1014.5
20 17:52 SW 8 10.00 Fair CLR 99 21 6% 93 30 1015.0
20 16:52 W 6 10.00 Fair CLR 99 32 99 89.1 9% 94 30.02 1015.5
20 15:52 SW 8 10.00 Fair CLR 98.1 37 12% 93 30.04 1016.2
20 14:52 Vrbl 7 10.00 Fair CLR 97 39 13% 92 30.05 1016.8
20 13:52 W 9 10.00 Fair CLR 98.1 46 17% 94 30.07 1017.3
20 12:52 SW 8 10.00 Fair CLR 93.9 51.1 23% 91 30.09 1017.8
20 11:52 SW 5 10.00 Fair CLR 93 50 23% 90 30.1 1018.2
20 10:52 NE 5 10.00 Fair CLR 89.1 50 89.1 59 26% 86 30.11 1018.5
20 09:52 N 6 10.00 Fair CLR 84.9 50 30% 83 30.11 1018.7
20 08:52 N 5 10.00 Fair CLR 77 50 39% 78 30.12 1019.0
20 07:52 NE 3 10.00 Fair CLR 70 50 49% 30.12 1019.0
20 06:52 NE 5 10.00 Fair CLR 64 48 56% 30.11 1018.6
20 05:52 Calm 10.00 Fair CLR 59 48 67% 30.1 1018.4
20 04:52 N 3 10.00 Fair CLR 60.1 48.9 81 60.1 67% 30.08 1017.8
20 03:52 N 5 10.00 Fair CLR 61 51.1 70% 30.07 1017.3
20 02:52 N 5 10.00 Fair CLR 63 53.1 70% 30.06 1017.0
20 01:52 Calm 10.00 Fair CLR 68 54 61% 30.06 1016.8
20 00:52 Calm 10.00 Fair CLR 71.1 54 55% 30.05 1016.6
19 23:52 Calm 10.00 Fair CLR 75 55 50% 78 30.04 1016.3
19 22:52 S 7 10.00 Fair CLR 82 55 97 78.1 40% 81 30.02 1015.7
19 21:52 SE 5 10.00 Fair CLR 81 52 37% 80 30.02 1015.5
19 20:52 S 8 10.00 Fair CLR 87.1 51.1 29% 85 30 1015.0
19 19:52 SE 10 10.00 Fair CLR 91 54 28% 89 30 1014.9
19 18:52 S 5 10.00 Fair CLR 96.1 48 19% 93 30 1015.0
19 17:52 Calm 10.00 Fair CLR 96.1 46 18% 92 30.01 1015.1
19 16:52 Vrbl 6 10.00 Fair CLR 97 46 98.1 84.9 17% 93 30.02 1015.8
19 15:52 S 9 10.00 Fair CLR 97 44.1 16% 93 30.04 1016.2
19 14:52 S 10 10.00 Fair CLR 96.1 46 18% 92 30.05 1016.8
19 13:52 S 7 10.00 Fair CLR 95 51.1 23% 92 30.06 1017.0
19 12:52 SW 9 10.00 Fair CLR 91.9 54 28% 90 30.07 1017.4
Date Time (pdt) Wind (mph) Vis. (mi.) Weather Sky Cond. Air Dwpt Max. Min. Relative Humidity Wind Chill (°F) Heat Index (°F) altimeter (in) sea level (mb) 1 hr 3 hr 6 hr
6 hour
Temperature (ºF) Pressure Precipitation (in)